Regional Weather Roundup
Issued by NWS

Home | Current Version | Previous Version | Graphics & Text | Print | Product List | Glossary On
Versions: 1 2 3 4 5 6 7 8 9 10 11 12 13 14 15 16 17 18 19 20 21 22 23 24 25 26 27 28 29 30 31 32 33 34 35 36 37 38 39 40 41 42 43 44 45 46 47 48 49 50
000
ASUS43 KBIS 080702
RWRND

NORTH DAKOTA REGIONAL WEATHER ROUNDUP
NATIONAL WEATHER SERVICE BISMARCK ND
100 AM CST THU DEC 08 2016

NOTE: "FAIR" INDICATES FEW OR NO CLOUDS BELOW 12,000 FEET WITH NO
SIGNIFICANT WEATHER AND/OR OBSTRUCTIONS TO VISIBILITY.


NDZ001>003-009>011-017-080800-
NORTHWEST NORTH DAKOTA

CITY           SKY/WX    TMP DP  RH WIND       PRES   REMARKS
WILLISTON      CLOUDY    -1  -8  72 W16       30.61R WCI -21
MINOT          FLURRIES   6   0  76 W28       30.48R WCI -17
MINOT AFB      CLOUDY     5   0  80 NW26      30.47R WCI -18
$$

NDZ018>021-031>035-040>046-080800-
SOUTHWEST NORTH DAKOTA

CITY           SKY/WX    TMP DP  RH WIND       PRES   REMARKS
BISMARCK       LGT SNOW   5   2  87 NW20G29   30.50S FOG     WCI -15
GARRISON         N/A      4  -1  80 NW26G32   30.48R WCI -19
HETTINGER ARPT CLEAR     -1  -8  72 NW18      30.51R WCI -22
$$

NDZ004>008-012>016-024-026-027-054-080800-
NORTHEAST NORTH DAKOTA

CITY           SKY/WX    TMP DP  RH WIND       PRES   REMARKS
GRAND FORKS    LGT SNOW  19  15  84 NW18      30.29R FOG     WCI   4
GRND FRKS AFB  LGT SNOW  16  12  83 NW17      30.31R WCI   0
DEVILS LAKE    LGT SNOW  10   7  85 NW25      30.35R FOG     WCI -10
$$

NDZ022-023-025-028>030-036>039-047>053-080800-
SOUTHEAST NORTH DAKOTA

CITY           SKY/WX    TMP DP  RH WIND       PRES   REMARKS
FARGO          CLOUDY    18  12  77 NW26G33   30.28R WCI  -1
$$





USA.gov is the U.S. government's official web portal to all federal, state and local government web resources and services.